Carlsbad, NM

5:03 PM MST on January 23, 2018 (GMT -0700)
Cavern City

Weather History for KCNM - December, 2013

Change the Weather History Date:

Friday, December 20, 2013

  Actual Average Record
Temperature  
Mean Temperature 46 °F -  
Max Temperature 50 °F 57 °F 76 °F (1955)
Min Temperature 41 °F 30 °F 10 °F (1973)
Degree Days  
Heating Degree Days 20    
Moisture  
Dew Point 38 °F    
Average Humidity 83    
Maximum Humidity 97    
Minimum Humidity 44    
Precipitation  
Precipitation 0.55 in - - ()
Sea Level Pressure  
Sea Level Pressure 29.69 in    
Wind  
Wind Speed 7 mph (ENE)    
Max Wind Speed 14 mph    
Max Gust Speed 18 mph    
Visibility 4 miles    
Events Fog , Rain    
Averages and records for this station are not official NWS values.
T = Trace of Precipitation, MM = Missing Value Source: NWS Daily Summary

Daily Weather History Graph

Daily Weather History Graph

Search for Another Location

Airport or City:

Trip Planner

Search our weather history database for the weather conditions in past years. The results will help you decide how hot, cold, wet, or windy it might be!

Date:

Astronomy

Dec. 20, 2013 Rise Set
Actual Time 6:54 AM MST 4:55 PM MST
Civil Twilight 6:26 AM MST 5:22 PM MST
Nautical Twilight 5:56 AM MST 5:53 PM MST
Astronomical Twilight 5:26 AM MST 6:23 PM MST
Moon 8:08 PM MST (12/20) 8:57 AM MST (12/20)
Length of Visible Light 10h 56m
Length of Day
10h 01m
Waning Gibbous, 90% of the Moon is Illuminated
Dec 20
Waning Gibbous
Dec 25
Last Quarter
Jan 1
New
Jan 7
First Quarter
Jan 15
Full

Hourly Weather History & Observations

Time (MST) Temp. Windchill Dew Point Humidity Pressure Visibility Wind Dir Wind Speed Gust Speed Precip Events Conditions
12:53 AM 46.9 °F - 27.0 °F 46% 29.65 in 10.0 mi West 11.5 mph - N/A   Clear
1:53 AM 48.0 °F - 27.0 °F 44% 29.65 in 10.0 mi WNW 10.4 mph - N/A   Clear
2:53 AM 46.9 °F - 26.1 °F 44% 29.65 in 10.0 mi ESE 9.2 mph - N/A   Clear
3:53 AM 42.1 °F 38.4 °F 27.0 °F 55% 29.67 in 10.0 mi SW 5.8 mph - N/A   Clear
4:53 AM 41.0 °F 35.8 °F 27.0 °F 57% 29.66 in 10.0 mi WNW 8.1 mph - N/A   Clear
5:53 AM 45.0 °F 43.5 °F 28.0 °F 52% 29.69 in 10.0 mi Variable 3.5 mph - N/A   Mostly Cloudy
6:53 AM 43.0 °F - 27.0 °F 53% 29.70 in 10.0 mi Calm Calm - N/A   Clear
7:53 AM 46.0 °F - 28.9 °F 51% 29.72 in 10.0 mi North - - N/A   Overcast
8:53 AM 48.9 °F - 28.0 °F 44% 29.71 in 10.0 mi South 3.5 mph - N/A   Mostly Cloudy
9:53 AM 50.0 °F - 34.0 °F 54% 29.74 in 10.0 mi Calm Calm - 0.00 in Rain Light Rain
10:53 AM 48.9 °F - 39.9 °F 71% 29.73 in 7.0 mi Variable 3.5 mph - 0.00 in Rain Light Rain
11:53 AM 46.0 °F 41.0 °F 41.0 °F 83% 29.72 in 4.0 mi North 10.4 mph - 0.04 in Rain Rain
12:03 PM 45.0 °F 38.9 °F 41.0 °F 86% 29.77 in 2.0 mi North 12.7 mph - 0.02 in Rain Heavy Rain
12:31 PM 43.0 °F 36.4 °F 39.9 °F 89% 29.75 in 4.0 mi NNE 12.7 mph - 0.11 in Rain Rain
12:42 PM 43.0 °F 37.2 °F 39.9 °F 89% 29.75 in 4.0 mi NNE 10.4 mph - 0.12 in Rain Rain
12:53 PM 42.1 °F 37.1 °F 39.9 °F 92% 29.71 in 3.0 mi NNE 8.1 mph - 0.14 in Rain Rain
1:02 PM 42.1 °F 36.6 °F 39.9 °F 92% 29.76 in 2.5 mi ENE 9.2 mph - 0.02 in Rain Rain
1:53 PM 42.1 °F 34.9 °F 39.9 °F 92% 29.66 in 2.0 mi East 13.8 mph - 0.11 in Rain Rain
2:05 PM 42.1 °F 37.1 °F 39.9 °F 92% 29.72 in 4.0 mi ESE 8.1 mph 18.4 mph 0.00 in Rain Light Rain
2:35 PM 41.0 °F 35.8 °F 39.0 °F 93% 29.72 in 2.5 mi ESE 8.1 mph - 0.01 in Rain Light Rain
2:53 PM 41.0 °F 36.4 °F 39.9 °F 96% 29.66 in 2.5 mi East 6.9 mph - 0.01 in   Overcast
3:33 PM 42.1 °F 39.2 °F 39.9 °F 92% 29.70 in 1.8 mi SSE 4.6 mph - N/A   Overcast
3:53 PM 42.1 °F 38.4 °F 39.9 °F 92% 29.66 in 2.0 mi SE 5.8 mph - N/A   Overcast
4:01 PM 42.1 °F 38.4 °F 39.9 °F 92% 29.71 in 1.8 mi South 5.8 mph - N/A   Overcast
4:14 PM 42.1 °F 40.2 °F 39.9 °F 92% 29.71 in 2.0 mi South 3.5 mph - N/A   Overcast
4:53 PM 42.1 °F 38.4 °F 41.0 °F 96% 29.67 in 2.0 mi SW 5.8 mph - N/A   Overcast
5:08 PM 43.0 °F - 41.0 °F 93% 29.71 in 3.0 mi Calm Calm - N/A   Overcast
5:15 PM 43.0 °F 41.3 °F 41.0 °F 93% 29.71 in 4.0 mi Variable 3.5 mph - N/A   Overcast
5:53 PM 44.1 °F - 42.1 °F 93% 29.66 in 5.0 mi Calm Calm - N/A   Overcast
6:53 PM 45.0 °F 43.5 °F 43.0 °F 93% 29.66 in 4.0 mi SE 3.5 mph - 0.01 in Rain Light Rain
7:28 PM 45.0 °F - 43.0 °F 93% 29.71 in 4.0 mi Calm Calm - 0.01 in Rain Light Rain
7:53 PM 45.0 °F 43.5 °F 43.0 °F 93% 29.66 in 2.0 mi NNW 3.5 mph - 0.03 in Rain Heavy Rain
8:02 PM 44.1 °F 40.1 °F 42.1 °F 93% 29.71 in 1.2 mi NNW 6.9 mph - 0.02 in Rain Rain
8:24 PM 44.1 °F 41.5 °F 42.1 °F 93% 29.70 in 1.5 mi ENE 4.6 mph - 0.08 in Rain Rain
8:53 PM 44.1 °F - 43.0 °F 96% 29.65 in 1.2 mi Calm Calm - 0.16 in Rain Heavy Rain
9:00 PM 44.1 °F 41.5 °F 42.1 °F 93% 29.71 in 1.5 mi North 4.6 mph - 0.02 in Rain Rain
9:10 PM 44.1 °F 40.1 °F 42.1 °F 93% 29.71 in 1.8 mi NE 6.9 mph - 0.03 in Rain Rain
9:24 PM 44.1 °F 40.8 °F 42.1 °F 93% 29.71 in 2.5 mi North 5.8 mph - 0.05 in Rain Light Rain
9:53 PM 44.1 °F 41.5 °F 42.1 °F 93% 29.63 in 3.0 mi East 4.6 mph - 0.05 in Rain Light Rain
10:01 PM 43.0 °F 41.3 °F 42.1 °F 97% 29.68 in 2.0 mi SE 3.5 mph - 0.00 in   Overcast
10:10 PM 43.0 °F 41.3 °F 42.1 °F 97% 29.68 in 1.8 mi ESE 3.5 mph - 0.00 in   Overcast
10:53 PM 43.0 °F - 42.1 °F 97% 29.63 in 1.0 mi Calm Calm - 0.00 in   Overcast
11:06 PM 43.0 °F 41.3 °F 42.1 °F 97% 29.68 in 0.5 mi North 3.5 mph - N/A Fog Fog
11:53 PM 41.0 °F 37.1 °F 39.9 °F 96% 29.60 in 3.0 mi NNW 5.8 mph - 0.00 in   Overcast